Date String (YYYY-MM-DD hh:mm:ss) UTC,Instrument flags,absolute air pressure of the measurement (hPa),sample flow rate (lpm),inlet stack bypass flow (lpm),air temperature of the measurement (°C),ambient temperature measured by the external sensor (°C),aerosol sample conditioner tube jacket temperature (°C),OPC LED temperature (°C),internal box temperature (°C),relative humidity of the measurement (%),span deviation,mass concentration of particles derived from Lorenz-Mie calculation of OPC scattering (μg/m³),mass concentration of particles derived from Lorenz-Mie calculation of OPC scattering (μg/m³),mass concentration of particles derived from Lorenz-Mie calculation of OPC scattering (μg/m³)
DateTimeUTC,F1_M11,P_M11,Q1_M11,Q2_M11,T1_M11,T2_M11,T3_M11,T4_M11,T5_M11,U1_M11,ZSPAN_M11,X2_M11,X0_M11,X1_M11
2024-04-01 16:00:00,SystemResetWarning,0821.3,4.99,000.00,020.7,020.0,000.0,029.2,022.5,29.1,0000.0,0001.80,0003.95,0001.56
2024-04-01 16:01:00,SystemResetWarning,0821.3,5.00,000.00,020.7,020.0,000.0,029.2,022.5,27.4,0000.0,0001.81,0003.97,0001.57
2024-04-01 16:02:00,SystemResetWarning,0821.3,5.00,000.00,020.7,020.0,000.0,029.2,022.5,27.7,0000.0,0001.79,0004.70,0001.57
2024-04-01 16:03:00,SystemResetWarning,0821.3,5.00,000.00,020.7,020.1,000.0,029.2,022.5,28.0,0000.0,0001.82,0004.82,0001.58
2024-04-01 16:04:00,SystemResetWarning,0821.3,5.00,000.00,020.7,020.1,000.0,029.2,022.5,27.3,0000.0,0001.88,0005.29,0001.60
2024-04-01 16:05:00,SystemResetWarning,0821.4,5.00,000.00,020.7,020.1,000.0,029.2,022.5,28.8,0000.0,0001.89,0005.52,0001.58
2024-04-01 16:06:00,SystemResetWarning,0821.3,5.00,000.00,020.7,020.1,000.0,029.2,022.5,28.4,0000.0,0001.86,0006.69,0001.55
2024-04-01 16:07:00,SystemResetWarning,0821.3,5.00,000.00,020.8,020.1,000.0,029.2,022.5,28.0,0000.0,0001.82,0006.69,0001.51
2024-04-01 16:08:00,SystemResetWarning,0821.3,5.00,000.00,020.8,020.1,000.0,029.2,022.5,27.8,0000.0,0001.78,0006.13,0001.49
2024-04-01 16:09:00,SystemResetWarning,0821.5,5.00,000.00,020.8,020.1,000.0,029.2,022.5,27.7,0000.0,0001.75,0006.09,0001.46
2024-04-01 16:10:00,SystemResetWarning,0821.7,5.00,000.00,020.7,020.1,000.0,029.2,022.5,27.3,0000.0,0001.72,0006.04,0001.45
2024-04-01 16:11:00,SystemResetWarning,0821.4,5.00,000.00,020.7,020.0,000.0,029.2,022.5,26.4,0000.0,0001.73,0006.08,0001.45
2024-04-01 16:12:00,SystemResetWarning,0821.4,4.99,000.00,020.7,020.0,000.0,029.2,022.5,26.0,0000.0,0001.71,0006.03,0001.43
2024-04-01 16:13:00,SystemResetWarning,0821.7,4.99,000.00,020.7,020.0,000.0,029.2,022.5,27.4,0000.0,0001.70,0006.01,0001.43
2024-04-01 16:14:00,SystemResetWarning,0821.6,5.00,000.00,020.7,020.0,000.0,029.2,022.5,26.9,0000.0,0001.67,0006.37,0001.43
2024-04-01 16:15:00,SystemResetWarning,0821.8,5.02,000.00,020.7,020.0,000.0,029.2,022.5,27.4,0000.0,0001.66,0005.97,0001.46
2024-04-01 16:16:00,SystemResetWarning,0821.8,4.99,000.00,020.7,020.0,000.0,029.2,022.5,28.0,0000.0,0001.67,0005.60,0001.52
2024-04-01 16:17:00,SystemResetWarning,0822.0,4.99,000.00,020.7,020.0,000.0,029.2,022.5,28.0,0000.0,0001.69,0004.55,0001.57
2024-04-01 16:18:00,SystemResetWarning,0822.0,5.01,000.00,020.7,020.0,000.0,029.2,022.5,27.4,0000.0,0001.76,0003.91,0001.62
2024-04-01 16:19:00,SystemResetWarning,0821.6,5.00,000.00,020.7,020.0,000.0,029.2,022.5,26.9,0000.0,0001.85,0004.00,0001.69
2024-04-01 16:20:00,SystemResetWarning,0821.6,4.99,000.00,020.7,020.0,000.0,029.2,022.5,27.1,0000.0,0001.93,0004.08,0001.76
2024-04-01 16:21:00,SystemResetWarning,0821.7,5.01,000.00,020.7,020.0,000.0,029.2,022.5,27.3,0000.0,0001.99,0004.13,0001.82
2024-04-01 16:22:00,SystemResetWarning,0821.7,5.02,000.00,020.7,020.0,000.0,029.2,022.5,26.7,0000.0,0002.03,0004.47,0001.88
2024-04-01 16:23:00,SystemResetWarning,0821.9,5.00,000.00,020.7,020.0,000.0,029.2,022.5,27.1,0000.0,0002.10,0004.55,0001.94
2024-04-01 16:24:00,SystemResetWarning,0821.8,5.00,000.00,020.7,020.0,000.0,029.2,022.5,27.2,0000.0,0002.18,0003.89,0002.02
2024-04-01 16:25:00,SystemResetWarning,0821.9,4.99,000.00,020.7,020.0,000.0,029.2,022.5,26.0,0000.0,0002.25,0002.92,0002.09
2024-04-01 16:26:00,SystemResetWarning,0822.0,5.01,000.00,020.7,020.0,000.0,029.2,022.5,26.3,0000.0,0002.31,0003.00,0002.13
2024-04-01 16:27:00,SystemResetWarning,0822.0,5.02,000.00,020.7,020.0,000.0,029.2,022.5,27.0,0000.0,0002.36,0003.14,0002.15
2024-04-01 16:28:00,SystemResetWarning,0822.0,4.99,000.00,020.7,020.0,000.0,029.2,022.5,26.2,0000.0,0002.41,0003.23,0002.17
2024-04-01 16:29:00,SystemResetWarning,0822.0,4.99,000.00,020.7,020.0,000.0,029.2,022.5,25.5,0000.0,0002.41,0003.27,0002.15
2024-04-01 16:30:00,SystemResetWarning,0822.0,5.00,000.00,020.7,020.0,000.0,029.2,022.5,25.8,0000.0,0002.40,0003.30,0002.13
2024-04-01 16:31:00,SystemResetWarning,0822.0,4.99,000.00,020.7,020.0,000.0,029.2,022.5,25.6,0000.0,0002.35,0003.24,0002.08
2024-04-01 16:32:00,SystemResetWarning,0822.0,5.00,000.00,020.7,020.0,000.0,029.2,022.5,25.3,0000.0,0002.34,0003.24,0002.06
2024-04-01 16:33:00,SystemResetWarning,0822.1,5.01,000.00,020.7,020.0,000.0,029.2,022.5,25.4,0000.0,0002.32,0003.05,0002.03
2024-04-01 16:34:00,SystemResetWarning,0822.1,5.01,000.00,020.7,020.1,000.0,029.2,022.5,25.6,0000.0,0002.29,0003.01,0001.99
2024-04-01 16:35:00,SystemResetWarning,0822.1,5.00,000.00,020.7,020.1,000.0,029.2,022.5,25.2,0000.0,0002.29,0003.11,0001.92
2024-04-01 16:36:00,SystemResetWarning,0821.9,4.99,000.00,020.7,020.1,000.0,029.2,022.5,25.2,0000.0,0002.25,0003.13,0001.85
2024-04-01 16:37:00,SystemResetWarning,0822.0,4.99,000.00,020.7,020.1,000.0,029.2,022.5,25.9,0000.0,0002.18,0003.06,0001.78
2024-04-01 16:38:00,SystemResetWarning,0822.0,5.00,000.00,020.8,020.1,000.0,029.2,022.6,25.3,0000.0,0002.13,0003.17,0001.72
2024-04-01 16:39:00,SystemResetWarning,0822.0,5.00,000.00,020.8,020.1,000.0,029.2,022.6,25.8,0000.0,0002.01,0003.03,0001.63
2024-04-01 16:40:00,SystemResetWarning,0822.0,5.00,000.00,020.8,020.1,000.0,029.2,022.6,25.8,0000.0,0001.95,0002.92,0001.57
2024-04-01 16:41:00,SystemResetWarning,0822.0,5.01,000.00,020.8,020.1,000.0,029.2,022.6,25.3,0000.0,0001.85,0002.74,0001.51
2024-04-01 16:42:00,SystemResetWarning,0822.0,5.01,000.00,020.8,020.2,000.0,029.2,022.6,25.3,0000.0,0001.79,0002.68,0001.48
2024-04-01 16:43:00,SystemResetWarning,0822.0,5.00,000.00,020.8,020.2,000.0,029.2,022.6,26.4,0000.0,0001.73,0002.65,0001.43
2024-04-01 16:44:00,SystemResetWarning,0822.1,4.99,000.00,020.8,020.2,000.0,029.3,022.6,26.2,0000.0,0001.65,0002.51,0001.38
2024-04-01 16:45:00,SystemResetWarning,0822.0,4.99,000.00,020.8,020.2,000.0,029.3,022.6,25.8,0000.0,0001.63,0002.43,0001.35
2024-04-01 16:46:00,SystemResetWarning,0821.9,5.00,000.00,020.8,020.2,000.0,029.3,022.6,24.2,0000.0,0001.56,0002.27,0001.34
2024-04-01 16:47:00,SystemResetWarning,0821.6,5.01,000.00,020.8,020.3,000.0,029.3,022.6,24.1,0000.0,0001.53,0002.18,0001.33
2024-04-01 16:48:00,SystemResetWarning,0821.6,5.00,000.00,020.8,020.3,000.0,029.3,022.7,24.0,0000.0,0001.52,0002.19,0001.32
2024-04-01 16:49:00,SystemResetWarning,0821.5,4.99,000.00,020.8,020.3,000.0,029.3,022.7,24.4,0000.0,0001.48,0001.93,0001.30
2024-04-01 16:50:00,SystemResetWarning,0821.6,4.99,000.00,020.9,020.3,000.0,029.3,022.7,24.5,0000.0,0001.49,0002.21,0001.32
2024-04-01 16:51:00,SystemResetWarning,0821.6,4.99,000.00,020.9,020.3,000.0,029.3,022.7,24.7,0000.0,0001.49,0002.18,0001.34
2024-04-01 16:52:00,SystemResetWarning,0821.6,4.99,000.00,020.9,020.3,000.0,029.3,022.7,24.6,0000.0,0001.52,0002.23,0001.37
2024-04-01 16:53:00,SystemResetWarning,0821.6,5.00,000.00,020.9,020.3,000.0,029.3,022.7,24.0,0000.0,0001.56,0002.28,0001.38
2024-04-01 16:54:00,SystemResetWarning,0821.5,5.00,000.00,020.9,020.3,000.0,029.3,022.7,23.7,0000.0,0001.57,0002.24,0001.40
2024-04-01 16:55:00,SystemResetWarning,0821.5,5.01,000.00,020.9,020.3,000.0,029.3,022.7,24.4,0000.0,0001.59,0002.25,0001.42
2024-04-01 16:56:00,SystemResetWarning,0821.6,5.01,000.00,020.9,020.3,000.0,029.3,022.7,23.9,0000.0,0001.63,0002.32,0001.44
2024-04-01 16:57:00,SystemResetWarning,0821.6,5.00,000.00,020.9,020.3,000.0,029.3,022.7,25.0,0000.0,0001.68,0002.39,0001.48
2024-04-01 16:58:00,SystemResetWarning,0821.5,5.00,000.00,020.9,020.3,000.0,029.3,022.7,25.4,0000.0,0001.73,0002.46,0001.54
2024-04-01 16:59:00,SystemResetWarning,0821.6,5.00,000.00,020.9,020.3,000.0,029.3,022.7,24.6,0000.0,0001.84,0002.57,0001.63
